YAHSAT 1A

Last updated on Sun Jun 21 2026 00:03:05 GMT+0000 (Coordinated Universal Time)

1 37393U 11016B 26171.40229720 .00000000 00000+0 00000+0 0 9995 2 37393 0.0156 0.9034 0003084 98.7277 6.3148 1.00269635 42448
UTC large
Height (km)
Speed (km/s)
/
Latitude / Longitude
Inclination (degrees)
Orbital Period (minutes)
Azimuth
Elevation
Range (km)
Doppler Factor

Next 0 passes for location: London (51.5072 / 0.1276)

No passes found over London.
YAHSAT 1A